Weather History for KHMN - January, 2013

Change the Weather History Date:

Monday, January 21, 2013

  Actual Average Record
Temperature  
Mean Temperature 40 °F -  
Max Temperature 61 °F 56 °F 69 °F (2000)
Min Temperature 18 °F 28 °F 18 °F (2013)
Degree Days  
Heating Degree Days 26    
Moisture  
Dew Point 5 °F    
Average Humidity 29    
Maximum Humidity 42    
Minimum Humidity 11    
Precipitation  
Precipitation 0.00 in - - ()
Sea Level Pressure  
Sea Level Pressure 30.18 in    
Wind  
Wind Speed 2 mph (NNE)    
Max Wind Speed 8 mph    
Max Gust Speed -    
Visibility 10 miles    
Events      
Averages and records for this station are not official NWS values.
T = Trace of Precipitation, MM = Missing Value Source: NWS Daily Summary

Daily Weather History Graph

Daily Weather History Graph

Search for Another Location

Airport or City:

Trip Planner

Search our weather history database for the weather conditions in past years. The results will help you decide how hot, cold, wet, or windy it might be!

Date:

Astronomy

Jan. 21, 2013 Rise Set
Actual Time 7:05 AM MST 5:26 PM MST
Civil Twilight 6:38 AM MST 5:53 PM MST
Nautical Twilight 6:08 AM MST 6:23 PM MST
Astronomical Twilight 5:39 AM MST 6:52 PM MST
Moon 1:09 PM MST (1/21) 2:35 AM MST (1/21)
Length of Visible Light 11h 14m
Length of Day
10h 21m
Waxing Gibbous, 75% of the Moon is Illuminated
Jan 21
Waxing Gibbous
Jan 26
Full
Feb 3
Last Quarter
Feb 10
New
Feb 17
First Quarter

Hourly Weather History & Observations

Time (MST) Temp. Windchill Dew Point Humidity Pressure Visibility Wind Dir Wind Speed Gust Speed Precip Events Conditions
12:58 AM 25.7 °F - 1.8 °F 36% 30.15 in 10.0 mi Calm Calm - N/A   Clear
1:58 AM 23.5 °F 17.6 °F 1.4 °F 38% 30.14 in 10.0 mi NE 4.6 mph - N/A   Clear
2:58 AM 23.9 °F - 1.8 °F 38% 30.15 in 10.0 mi Calm Calm - N/A   Clear
3:58 AM 21.6 °F - -0.2 °F 39% 30.15 in 10.0 mi Calm Calm - N/A   Clear
4:58 AM 19.2 °F - -1.3 °F 41% 30.17 in 10.0 mi Calm Calm - N/A   Clear
5:58 AM 18.5 °F - -1.5 °F 42% 30.22 in 10.0 mi Calm Calm - N/A   Clear
6:58 AM 20.7 °F - -0.0 °F 41% 30.24 in 10.0 mi Calm Calm - N/A   Clear
7:58 AM 23.0 °F - 2.1 °F 41% 30.26 in 10.0 mi Calm Calm - N/A   Clear
8:58 AM 30.0 °F 26.5 °F 6.4 °F 37% 30.27 in 10.0 mi East 3.5 mph - N/A   Clear
9:58 AM 41.4 °F - 8.2 °F 26% 30.25 in 10.0 mi ESE 2.3 mph - N/A   Clear
10:58 AM 47.8 °F - 8.8 °F 21% 30.22 in 10.0 mi ENE 1.2 mph - N/A   Clear
11:58 AM 51.8 °F - 8.1 °F 17% 30.20 in 10.0 mi Variable 1.2 mph - N/A   Clear
12:58 PM 58.6 °F - 8.2 °F 14% 30.15 in 10.0 mi Calm Calm - N/A   Clear
1:58 PM 59.7 °F - 6.1 °F 12% 30.13 in 10.0 mi Variable 3.5 mph - N/A   Clear
2:58 PM 61.2 °F - 6.4 °F 11% 30.11 in 10.0 mi Variable 3.5 mph - N/A   Clear
3:58 PM 61.2 °F - 11.8 °F 14% 30.11 in 10.0 mi NW 5.8 mph - N/A   Clear
4:58 PM 56.3 °F - 12.2 °F 17% 30.13 in 10.0 mi WNW 5.8 mph - N/A   Clear
5:58 PM 46.9 °F - 11.1 °F 24% 30.17 in 10.0 mi NW 5.8 mph - N/A   Clear
6:58 PM 42.4 °F 38.8 °F 10.0 °F 27% 30.17 in 10.0 mi NNW 5.8 mph - N/A   Clear
7:58 PM 41.5 °F 36.4 °F 7.5 °F 25% 30.18 in 10.0 mi North 8.1 mph - N/A   Clear
8:58 PM 34.7 °F 29.6 °F 4.8 °F 29% 30.18 in 10.0 mi North 5.8 mph - N/A   Clear
9:58 PM 31.5 °F 26.8 °F 4.3 °F 32% 30.17 in 10.0 mi NE 4.6 mph - N/A   Clear
10:58 PM 29.5 °F 24.5 °F 3.2 °F 33% 30.17 in 10.0 mi NE 4.6 mph - N/A   Clear
11:58 PM 28.6 °F - 3.2 °F 34% 30.17 in 10.0 mi NNE 2.3 mph - N/A   Clear